Hourly Data Report for September 29, 2017

All times are specified in Local Standard Time (LST). Add 1 hour to adjust for Daylight Saving Time where and when it is observed.

PENTICTON A
BRITISH COLUMBIA

49°27'45.000" N
119°36'08.000" W
344.40 m
1126146
71889
YYF

Download Data

Hourly Data (September 2017)
Hourly Data Report for September 29, 2017
Temp Definition
°C
Dew Point Temp Definition
°C
Rel Hum Definition
%
Wind Dir Definition
10's deg

Wind Spd Definition
km/h
Visibility Definition
km
Stn Press Definition
kPa
Hmdx Definition


Wind Chill Definition


Weather Definition


TIME
00:00 Legend Double Dagger 12.2 5.3 63 35 5 24.1 97.27     LegendNANA
01:00 Legend Double Dagger 9.7 5.2 73 0 1 24.1 97.28     Clear
02:00 Legend Double Dagger 8.7 5.5 80 2 3 24.1 97.28     LegendNANA
03:00 Legend Double Dagger 8.4 6.6 89 1 3 24.1 97.24     LegendNANA
04:00 Legend Double Dagger 8.0 5.2 82 36 3 24.1 97.23     Clear
05:00 Legend Double Dagger 6.3 4.2 86 1 7 24.1 97.22     LegendNANA
06:00 Legend Double Dagger 7.0 3.9 81 36 1 24.1 97.23     LegendNANA
07:00 Legend Double Dagger 7.1 4.4 83 3 5 24.1 97.22     Mainly Clear
08:00 Legend Double Dagger 12.9 6.8 66 0 1 24.1 97.20     LegendNANA
09:00 Legend Double Dagger 16.3 8.0 58 23 4 24.1 97.13     LegendNANA
10:00 Legend Double Dagger 17.5 6.9 49 20 4 24.1 97.06     Mainly Clear
11:00 Legend Double Dagger 19.7 7.3 44 36 2 24.1 96.97     LegendNANA
12:00 Legend Double Dagger 20.9 8.4 44 17 12 24.1 96.85     LegendNANA
13:00 Legend Double Dagger 23.6 7.5 35 17 17 24.1 96.74     Mostly Cloudy
14:00 Legend Double Dagger 23.5 8.6 38 17 20 24.1 96.72     LegendNANA
15:00 Legend Double Dagger 21.5 10.1 48 2 8 24.1 96.78     LegendNANA
16:00 Legend Double Dagger 20.1 10.4 53 33 9 24.1 96.88     Rain Showers
17:00 Legend Double Dagger 16.5 12.3 76 27 5 24.1 97.02     Rain Showers
18:00 Legend Double Dagger 14.6 13.3 92 35 8 24.1 97.04     Rain Showers
19:00 Legend Double Dagger 14.7 12.8 88 20 4 24.1 97.03     Mostly Cloudy
20:00 Legend Double Dagger 13.4 12.1 91 29 4 24.1 97.04     LegendNANA
21:00 Legend Double Dagger 11.9 10.8 93 33 5 24.1 97.08     LegendNANA
22:00 Legend Double Dagger 10.9 10.1 95 36 3 24.1 97.11     Mainly Clear
23:00 Legend Double Dagger 12.0 11.0 94 32 9 24.1 97.19     LegendNANA

Notes on Data Quality.

Legend

  • E = Estimated
  • M = Missing
  • NA = Not Available
  • ‡ = Partner data that is not subject to review by the National Climate Archives
Date modified: